Погода в Самане

Доминиканская Республика     19°12′38″N   69°19′15″W
темп.,
°C
ветер,
м/с
пор.,
м/с
влажн.,
%
обл.,
%
осадки,
мм/ч
давл.,
гПа
погр.,
м
24 января, вс
вс2423:00+23св368121 0.0 1017402
02:00+22всв358010 0.0 1016395
05:00+22всв358227 0.0 1016451
08:00+23в247547 0.1 1017522
11:00+26всв346447 0.0 10181165
14:00+25всв346973 0.0 1016924
17:00+25всв447114 0.0 1015886
20:00+23всв477839 0.0 1016528
25 января, пн
пн2523:00+23всв477687 0.0 1017640
02:00+23св478173 0.1 1016575
05:00+22св478159 0.1 1016527
08:00+23св467859 0.2 1018601
11:00+25всв456461 0.0 10191165
14:00+26всв456035 0.0 10161194
17:00+25всв45650 0.0 10151113
20:00+22всв36767 0.0 1017498
26 января, вт
вт2623:00+23всв478128 0.0 1018557
02:00+23всв478437 0.1 1017562
05:00+22всв599031 0.9 1016608
08:00+23в698958 2.6 1018689
11:00+24в698185 1.2 1019917
14:00+25в687375 1.4 1017974
17:00+24в57788 0.0 1016845
20:00+24в578133 0.1 1018827
27 января, ср
ср2723:00+23всв588457 0.1 1018685
02:00+23всв478354 0.3 1017627
05:00+22всв478435 0.1 1017563
08:00+23всв477949 0.3 1019650
11:00+24всв457288 0.1 1020963
14:00+25всв456794 0.1 10171013
17:00+24в456897 0.0 1016975
20:00+23всв477584 0.0 1017736
28 января, чт
чт2823:00+23в477943 0.0 1018647
02:00+22в478064 0.1 1017640
05:00+23всв577989 0.1 1016704
08:00+23всв467669 0.3 1017683
11:00+25в456637 0.0 10181160
14:00+26в446426 0.0 1015927
17:00+25вюв467457 0.0 1014635
20:00+23вюв368678 0.0 1015375